Time,TemperatureF,DewpointF,PressureIn,WindDirection,WindDirectionDegrees,WindSpeedMPH,WindSpeedGustMPH,Humidity,HourlyPrecipIn,Conditions,Clouds,dailyrainin,SoftwareType,DateUTC
2013-10-22 00:00:00,78.1,75.6,29.97,SSW,201,1.0,4.0,92,0.00,,,0.01,VWS V14.01,2013-10-22 04:00:00,
2013-10-22 00:01:00,78.1,75.6,29.97,SSW,201,1.0,1.0,92,0.00,,,0.00,VWS V14.01,2013-10-22 04:01:00,
2013-10-22 00:06:00,78.0,75.5,29.96,SSW,201,0.0,2.0,92,0.00,,,0.00,VWS V14.01,2013-10-22 04:06:00,
2013-10-22 00:11:00,78.0,75.5,29.96,SSW,200,0.0,2.0,92,0.00,,,0.00,VWS V14.01,2013-10-22 04:11:00,
2013-10-22 00:15:00,77.9,75.4,29.96,SSW,200,0.0,2.0,92,0.00,,,0.00,VWS V14.01,2013-10-22 04:15:00,
2013-10-22 00:16:00,77.9,75.4,29.97,SSW,200,0.0,1.0,92,0.00,,,0.00,VWS V14.01,2013-10-22 04:16:00,
2013-10-22 00:21:00,77.8,75.3,29.97,SSW,200,0.0,1.0,92,0.00,,,0.00,VWS V14.01,2013-10-22 04:21:00,
2013-10-22 00:26:00,77.8,75.3,29.97,SSW,200,0.0,1.0,92,0.00,,,0.00,VWS V14.01,2013-10-22 04:26:00,
2013-10-22 00:30:00,77.8,75.3,29.97,SSW,200,0.0,1.0,92,0.00,,,0.00,VWS V14.01,2013-10-22 04:30:00,
2013-10-22 00:31:00,77.8,75.3,29.96,SSW,200,0.0,0.0,92,0.00,,,0.00,VWS V14.01,2013-10-22 04:31:00,
2013-10-22 00:36:00,77.8,75.3,29.96,SSW,200,0.0,1.0,92,0.00,,,0.00,VWS V14.01,2013-10-22 04:36:00,
2013-10-22 00:41:00,77.7,75.2,29.96,SSW,200,0.0,1.0,92,0.00,,,0.00,VWS V14.01,2013-10-22 04:41:00,
2013-10-22 00:45:00,77.7,75.2,29.96,SSW,200,0.0,1.0,92,0.00,,,0.00,VWS V14.01,2013-10-22 04:45:00,
2013-10-22 00:46:00,77.7,75.2,29.96,SSW,200,0.0,0.0,92,0.00,,,0.00,VWS V14.01,2013-10-22 04:46:00,
2013-10-22 00:51:00,77.7,75.2,29.96,South,179,0.0,1.0,92,0.00,,,0.00,VWS V14.01,2013-10-22 04:51:00,
2013-10-22 00:56:00,77.8,75.3,29.96,South,169,0.0,1.0,92,0.00,,,0.00,VWS V14.01,2013-10-22 04:56:00,
2013-10-22 01:00:00,77.8,75.3,29.96,ESE,121,0.0,3.0,92,0.00,,,0.00,VWS V14.01,2013-10-22 05:00:00,
2013-10-22 01:01:00,77.8,75.3,29.95,ESE,119,1.0,4.0,92,0.00,,,0.00,VWS V14.01,2013-10-22 05:01:00,
2013-10-22 01:06:00,77.8,75.3,29.95,ESE,113,0.0,4.0,92,0.00,,,0.00,VWS V14.01,2013-10-22 05:06:00,
2013-10-22 01:11:00,77.8,75.3,29.95,ESE,114,0.0,4.0,92,0.00,,,0.00,VWS V14.01,2013-10-22 05:11:00,
2013-10-22 01:15:00,77.8,75.3,29.96,ESE,114,0.0,4.0,92,0.00,,,0.00,VWS V14.01,2013-10-22 05:15:00,
2013-10-22 01:16:00,77.8,75.3,29.96,ESE,114,0.0,1.0,92,0.00,,,0.00,VWS V14.01,2013-10-22 05:16:00,
2013-10-22 01:21:00,77.8,75.3,29.95,ESE,114,3.0,3.0,92,0.00,,,0.00,VWS V14.01,2013-10-22 05:21:00,
2013-10-22 01:26:00,77.7,75.2,29.95,ESE,114,0.0,3.0,92,0.00,,,0.00,VWS V14.01,2013-10-22 05:26:00,
2013-10-22 01:30:00,77.7,75.2,29.95,ESE,114,0.0,3.0,92,0.00,,,0.00,VWS V14.01,2013-10-22 05:30:00,
2013-10-22 01:31:00,77.7,75.2,29.95,ESE,114,1.0,2.0,92,0.00,,,0.00,VWS V14.01,2013-10-22 05:31:00,
2013-10-22 01:36:00,77.7,75.2,29.95,ESE,114,0.0,2.0,92,0.00,,,0.00,VWS V14.01,2013-10-22 05:36:00,
2013-10-22 01:41:00,77.7,75.2,29.95,SE,134,0.0,3.0,92,0.00,,,0.00,VWS V14.01,2013-10-22 05:41:00,
2013-10-22 01:45:00,77.7,75.2,29.95,SE,131,0.0,3.0,92,0.00,,,0.00,VWS V14.01,2013-10-22 05:45:00,
2013-10-22 01:46:00,77.7,75.2,29.95,SE,131,0.0,0.0,92,0.00,,,0.00,VWS V14.01,2013-10-22 05:46:00,
2013-10-22 01:51:00,77.6,75.1,29.95,SE,127,1.0,2.0,92,0.00,,,0.00,VWS V14.01,2013-10-22 05:51:00,
2013-10-22 01:56:00,77.6,75.1,29.95,SE,127,0.0,2.0,92,0.00,,,0.00,VWS V14.01,2013-10-22 05:56:00,
2013-10-22 02:00:00,77.6,75.1,29.95,SE,127,0.0,2.0,92,0.00,,,0.00,VWS V14.01,2013-10-22 06:00:00,
2013-10-22 02:01:00,77.6,75.1,29.96,SE,127,0.0,0.0,92,0.00,,,0.00,VWS V14.01,2013-10-22 06:01:00,
2013-10-22 02:06:00,77.5,75.0,29.95,SE,127,0.0,0.0,92,0.00,,,0.00,VWS V14.01,2013-10-22 06:06:00,
2013-10-22 02:11:00,77.6,75.1,29.95,SE,127,0.0,1.0,92,0.00,,,0.00,VWS V14.01,2013-10-22 06:11:00,
2013-10-22 02:15:00,77.6,75.1,29.95,SE,127,0.0,1.0,92,0.00,,,0.00,VWS V14.01,2013-10-22 06:15:00,
2013-10-22 02:16:00,77.6,75.1,29.95,SE,127,0.0,0.0,92,0.00,,,0.00,VWS V14.01,2013-10-22 06:16:00,
2013-10-22 02:21:00,77.5,75.0,29.95,SE,127,0.0,0.0,92,0.00,,,0.00,VWS V14.01,2013-10-22 06:21:00,
2013-10-22 02:26:00,77.5,75.0,29.95,SE,127,0.0,0.0,92,0.00,,,0.00,VWS V14.01,2013-10-22 06:26:00,
2013-10-22 02:30:00,77.5,75.0,29.95,SE,127,0.0,0.0,92,0.00,,,0.00,VWS V14.01,2013-10-22 06:30:00,
2013-10-22 02:31:00,77.5,75.0,29.95,SE,127,0.0,0.0,92,0.00,,,0.00,VWS V14.01,2013-10-22 06:31:00,
2013-10-22 02:36:00,77.5,75.0,29.95,SE,127,0.0,1.0,92,0.00,,,0.00,VWS V14.01,2013-10-22 06:36:00,
2013-10-22 02:41:00,77.5,75.0,29.95,SE,127,0.0,1.0,92,0.00,,,0.00,VWS V14.01,2013-10-22 06:41:00,
2013-10-22 02:45:00,77.5,75.0,29.95,SE,127,0.0,1.0,92,0.00,,,0.00,VWS V14.01,2013-10-22 06:45:00,
2013-10-22 02:46:00,77.5,75.0,29.95,SE,127,0.0,0.0,92,0.00,,,0.00,VWS V14.01,2013-10-22 06:46:00,
2013-10-22 02:51:00,77.5,75.0,29.95,SE,127,0.0,0.0,92,0.00,,,0.00,VWS V14.01,2013-10-22 06:51:00,
2013-10-22 02:56:00,77.5,75.0,29.95,SE,127,0.0,0.0,92,0.00,,,0.00,VWS V14.01,2013-10-22 06:56:00,
2013-10-22 03:00:00,77.5,75.0,29.95,SE,127,0.0,0.0,92,0.00,,,0.00,VWS V14.01,2013-10-22 07:00:00,
2013-10-22 03:01:00,77.5,75.0,29.94,SE,127,0.0,0.0,92,0.00,,,0.00,VWS V14.01,2013-10-22 07:01:00,
2013-10-22 03:06:00,77.5,75.0,29.94,SE,127,0.0,1.0,92,0.00,,,0.00,VWS V14.01,2013-10-22 07:06:00,
2013-10-22 03:11:00,77.4,74.9,29.94,SE,127,0.0,1.0,92,0.00,,,0.00,VWS V14.01,2013-10-22 07:11:00,
2013-10-22 03:15:00,77.3,74.8,29.94,SE,127,0.0,1.0,92,0.00,,,0.00,VWS V14.01,2013-10-22 07:15:00,
2013-10-22 03:16:00,77.3,74.8,29.94,SE,127,0.0,0.0,92,0.00,,,0.00,VWS V14.01,2013-10-22 07:16:00,
2013-10-22 03:21:00,77.1,74.6,29.94,SE,127,0.0,1.0,92,0.00,,,0.00,VWS V14.01,2013-10-22 07:21:00,
2013-10-22 03:26:00,77.0,74.5,29.94,SE,127,0.0,1.0,92,0.00,,,0.00,VWS V14.01,2013-10-22 07:26:00,
2013-10-22 03:30:00,76.9,74.4,29.94,SE,127,0.0,1.0,92,0.00,,,0.00,VWS V14.01,2013-10-22 07:30:00,
2013-10-22 03:31:00,76.9,74.4,29.93,SE,127,0.0,0.0,92,0.00,,,0.00,VWS V14.01,2013-10-22 07:31:00,
2013-10-22 03:36:00,76.9,74.7,29.93,SE,127,0.0,0.0,93,0.00,,,0.00,VWS V14.01,2013-10-22 07:36:00,
2013-10-22 03:41:00,77.0,74.8,29.93,SE,127,0.0,0.0,93,0.00,,,0.00,VWS V14.01,2013-10-22 07:41:00,
2013-10-22 03:45:00,76.9,74.7,29.93,SE,127,0.0,0.0,93,0.00,,,0.00,VWS V14.01,2013-10-22 07:45:00,
2013-10-22 03:46:00,76.9,74.7,29.93,SE,127,0.0,0.0,93,0.00,,,0.00,VWS V14.01,2013-10-22 07:46:00,
2013-10-22 03:51:00,76.8,74.6,29.93,SE,127,0.0,1.0,93,0.00,,,0.00,VWS V14.01,2013-10-22 07:51:00,
2013-10-22 03:56:00,76.8,74.6,29.93,SE,127,0.0,1.0,93,0.00,,,0.00,VWS V14.01,2013-10-22 07:56:00,
2013-10-22 04:00:00,76.8,74.6,29.93,SE,127,0.0,1.0,93,0.00,,,0.00,VWS V14.01,2013-10-22 08:00:00,
2013-10-22 04:01:00,76.8,74.6,29.93,SE,127,0.0,0.0,93,0.00,,,0.00,VWS V14.01,2013-10-22 08:01:00,
2013-10-22 04:06:00,76.9,74.7,29.93,SE,127,0.0,0.0,93,0.00,,,0.00,VWS V14.01,2013-10-22 08:06:00,
2013-10-22 04:11:00,76.9,74.7,29.93,SE,127,0.0,1.0,93,0.00,,,0.00,VWS V14.01,2013-10-22 08:11:00,
2013-10-22 04:15:00,76.9,74.7,29.93,SE,127,0.0,1.0,93,0.00,,,0.00,VWS V14.01,2013-10-22 08:15:00,
2013-10-22 04:16:00,76.9,74.7,29.93,SE,127,0.0,0.0,93,0.00,,,0.00,VWS V14.01,2013-10-22 08:16:00,
2013-10-22 04:21:00,76.9,74.7,29.93,SE,127,0.0,0.0,93,0.00,,,0.00,VWS V14.01,2013-10-22 08:21:00,
2013-10-22 04:26:00,76.8,74.6,29.93,SE,127,1.0,1.0,93,0.00,,,0.00,VWS V14.01,2013-10-22 08:26:00,
2013-10-22 04:30:00,76.8,74.6,29.93,SE,127,0.0,1.0,93,0.00,,,0.00,VWS V14.01,2013-10-22 08:30:00,
2013-10-22 04:31:00,76.8,74.6,29.93,SE,127,0.0,0.0,93,0.00,,,0.00,VWS V14.01,2013-10-22 08:31:00,
2013-10-22 04:36:00,76.7,74.5,29.93,SE,127,0.0,0.0,93,0.00,,,0.00,VWS V14.01,2013-10-22 08:36:00,
2013-10-22 04:41:00,76.6,74.8,29.92,SE,127,0.0,0.0,94,0.00,,,0.00,VWS V14.01,2013-10-22 08:41:00,
2013-10-22 04:45:00,76.6,74.8,29.92,SE,127,0.0,0.0,94,0.00,,,0.00,VWS V14.01,2013-10-22 08:45:00,
2013-10-22 04:46:00,76.5,74.7,29.92,SE,127,0.0,0.0,94,0.00,,,0.00,VWS V14.01,2013-10-22 08:46:00,
2013-10-22 04:51:00,76.4,74.6,29.92,SE,127,0.0,0.0,94,0.00,,,0.00,VWS V14.01,2013-10-22 08:51:00,
2013-10-22 04:56:00,76.3,74.4,29.92,SE,127,0.0,0.0,94,0.00,,,0.00,VWS V14.01,2013-10-22 08:56:00,
2013-10-22 05:00:00,76.3,74.4,29.92,SE,127,0.0,0.0,94,0.00,,,0.00,VWS V14.01,2013-10-22 09:00:00,
2013-10-22 05:01:00,76.2,74.3,29.92,SE,127,0.0,0.0,94,0.00,,,0.00,VWS V14.01,2013-10-22 09:01:00,
2013-10-22 05:06:00,76.2,74.3,29.92,SE,127,0.0,0.0,94,0.00,,,0.00,VWS V14.01,2013-10-22 09:06:00,
2013-10-22 05:11:00,76.1,74.2,29.92,SE,127,0.0,0.0,94,0.00,,,0.00,VWS V14.01,2013-10-22 09:11:00,
2013-10-22 05:15:00,76.1,74.2,29.92,SE,127,0.0,0.0,94,0.00,,,0.00,VWS V14.01,2013-10-22 09:15:00,
2013-10-22 05:16:00,76.1,74.2,29.92,SE,127,0.0,0.0,94,0.00,,,0.00,VWS V14.01,2013-10-22 09:16:00,
2013-10-22 05:21:00,76.0,74.2,29.92,SE,127,0.0,0.0,94,0.00,,,0.00,VWS V14.01,2013-10-22 09:21:00,
2013-10-22 05:26:00,76.0,74.2,29.92,SE,127,0.0,0.0,94,0.00,,,0.00,VWS V14.01,2013-10-22 09:26:00,
2013-10-22 05:30:00,76.0,74.2,29.92,SE,127,0.0,0.0,94,0.00,,,0.00,VWS V14.01,2013-10-22 09:30:00,
2013-10-22 05:31:00,76.1,74.2,29.92,SE,127,0.0,0.0,94,0.00,,,0.00,VWS V14.01,2013-10-22 09:31:00,
2013-10-22 05:36:00,76.1,74.2,29.92,SE,127,0.0,0.0,94,0.00,,,0.00,VWS V14.01,2013-10-22 09:36:00,
2013-10-22 05:41:00,76.1,74.2,29.93,SE,127,0.0,0.0,94,0.00,,,0.00,VWS V14.01,2013-10-22 09:41:00,
2013-10-22 05:45:00,76.0,74.2,29.93,SE,127,0.0,0.0,94,0.00,,,0.00,VWS V14.01,2013-10-22 09:45:00,
2013-10-22 05:46:00,76.0,74.2,29.93,SE,127,0.0,0.0,94,0.00,,,0.00,VWS V14.01,2013-10-22 09:46:00,
2013-10-22 05:51:00,76.0,74.2,29.93,SE,127,0.0,0.0,94,0.00,,,0.00,VWS V14.01,2013-10-22 09:51:00,
2013-10-22 05:56:00,76.0,74.2,29.93,SE,127,0.0,0.0,94,0.00,,,0.00,VWS V14.01,2013-10-22 09:56:00,
2013-10-22 06:00:00,76.1,74.2,29.93,SE,127,0.0,0.0,94,0.00,,,0.00,VWS V14.01,2013-10-22 10:00:00,
2013-10-22 06:01:00,76.0,74.2,29.93,SE,127,0.0,0.0,94,0.00,,,0.00,VWS V14.01,2013-10-22 10:01:00,
2013-10-22 06:06:00,76.1,74.2,29.93,SE,127,0.0,0.0,94,0.00,,,0.00,VWS V14.01,2013-10-22 10:06:00,
2013-10-22 06:11:00,76.2,74.7,29.93,SE,127,0.0,0.0,95,0.00,,,0.00,VWS V14.01,2013-10-22 10:11:00,
2013-10-22 06:15:00,76.4,74.9,29.93,SE,127,0.0,0.0,95,0.00,,,0.00,VWS V14.01,2013-10-22 10:15:00,
2013-10-22 06:16:00,76.4,74.9,29.93,SE,127,0.0,0.0,95,0.00,,,0.00,VWS V14.01,2013-10-22 10:16:00,
2013-10-22 06:21:00,76.4,74.9,29.93,SE,127,0.0,0.0,95,0.00,,,0.00,VWS V14.01,2013-10-22 10:21:00,
2013-10-22 06:26:00,76.4,74.9,29.94,SE,127,0.0,0.0,95,0.00,,,0.00,VWS V14.01,2013-10-22 10:26:00,
2013-10-22 06:30:00,76.6,75.1,29.93,SE,127,0.0,0.0,95,0.00,,,0.00,VWS V14.01,2013-10-22 10:30:00,
2013-10-22 06:31:00,76.6,75.1,29.93,SE,127,0.0,0.0,95,0.00,,,0.00,VWS V14.01,2013-10-22 10:31:00,
2013-10-22 06:36:00,76.6,75.1,29.94,SE,127,0.0,0.0,95,0.00,,,0.00,VWS V14.01,2013-10-22 10:36:00,
2013-10-22 06:41:00,76.5,75.0,29.94,SE,127,0.0,0.0,95,0.00,,,0.00,VWS V14.01,2013-10-22 10:41:00,
2013-10-22 06:45:00,76.5,75.0,29.94,SE,127,0.0,0.0,95,0.00,,,0.00,VWS V14.01,2013-10-22 10:45:00,
2013-10-22 06:46:00,76.5,75.0,29.94,SE,127,0.0,0.0,95,0.00,,,0.00,VWS V14.01,2013-10-22 10:46:00,
2013-10-22 06:51:00,76.5,75.0,29.94,SE,127,0.0,0.0,95,0.00,,,0.00,VWS V14.01,2013-10-22 10:51:00,
2013-10-22 06:56:00,76.4,74.9,29.94,SE,127,0.0,0.0,95,0.00,,,0.00,VWS V14.01,2013-10-22 10:56:00,
2013-10-22 07:00:00,76.4,74.9,29.94,SE,127,0.0,0.0,95,0.00,,,0.00,VWS V14.01,2013-10-22 11:00:00,
2013-10-22 07:01:00,76.4,74.9,29.94,SE,127,0.0,0.0,95,0.00,,,0.00,VWS V14.01,2013-10-22 11:01:00,
2013-10-22 07:06:00,76.2,74.7,29.94,SE,127,0.0,1.0,95,0.00,,,0.00,VWS V14.01,2013-10-22 11:06:00,
2013-10-22 07:11:00,76.1,74.6,29.93,SE,127,0.0,1.0,95,0.00,,,0.00,VWS V14.01,2013-10-22 11:11:00,
2013-10-22 07:15:00,76.0,74.5,29.93,SE,127,0.0,1.0,95,0.00,,,0.00,VWS V14.01,2013-10-22 11:15:00,
2013-10-22 07:16:00,76.0,74.5,29.93,SE,127,0.0,0.0,95,0.00,,,0.00,VWS V14.01,2013-10-22 11:16:00,
2013-10-22 07:21:00,76.0,74.5,29.93,SE,127,0.0,0.0,95,0.00,,,0.00,VWS V14.01,2013-10-22 11:21:00,
2013-10-22 07:26:00,76.0,74.5,29.93,SE,127,0.0,0.0,95,0.00,,,0.00,VWS V14.01,2013-10-22 11:26:00,
2013-10-22 07:30:00,76.0,74.5,29.93,SE,127,0.0,0.0,95,0.00,,,0.00,VWS V14.01,2013-10-22 11:30:00,
2013-10-22 07:31:00,76.0,74.5,29.93,SE,127,0.0,0.0,95,0.00,,,0.00,VWS V14.01,2013-10-22 11:31:00,
2013-10-22 07:36:00,76.0,74.5,29.93,SE,127,1.0,1.0,95,0.00,,,0.00,VWS V14.01,2013-10-22 11:36:00,
2013-10-22 07:41:00,76.0,74.5,29.93,SE,127,0.0,2.0,95,0.00,,,0.00,VWS V14.01,2013-10-22 11:41:00,
2013-10-22 07:45:00,76.1,74.6,29.93,SE,127,0.0,2.0,95,0.00,,,0.00,VWS V14.01,2013-10-22 11:45:00,
2013-10-22 07:46:00,76.1,74.6,29.93,SE,127,1.0,1.0,95,0.00,,,0.00,VWS V14.01,2013-10-22 11:46:00,
2013-10-22 07:51:00,76.2,74.7,29.93,SE,127,1.0,2.0,95,0.00,,,0.00,VWS V14.01,2013-10-22 11:51:00,
2013-10-22 07:56:00,76.5,75.0,29.93,SE,127,2.0,2.0,95,0.00,,,0.00,VWS V14.01,2013-10-22 11:56:00,
2013-10-22 08:00:00,76.7,74.8,29.93,SE,127,0.0,3.0,94,0.00,,,0.00,VWS V14.01,2013-10-22 12:00:00,
2013-10-22 08:01:00,76.7,74.8,29.94,SE,127,0.0,1.0,94,0.00,,,0.00,VWS V14.01,2013-10-22 12:01:00,
2013-10-22 08:06:00,76.9,75.1,29.94,SE,127,0.0,1.0,94,0.00,,,0.00,VWS V14.01,2013-10-22 12:06:00,
2013-10-22 08:11:00,77.1,75.2,29.94,SE,127,0.0,1.0,94,0.00,,,0.00,VWS V14.01,2013-10-22 12:11:00,
2013-10-22 08:15:00,77.3,75.4,29.94,SE,127,0.0,1.0,94,0.00,,,0.00,VWS V14.01,2013-10-22 12:15:00,
2013-10-22 08:16:00,77.3,75.4,29.94,SE,127,0.0,0.0,94,0.00,,,0.00,VWS V14.01,2013-10-22 12:16:00,
2013-10-22 08:21:00,77.6,75.4,29.94,SE,127,0.0,2.0,93,0.00,,,0.00,VWS V14.01,2013-10-22 12:21:00,
2013-10-22 08:26:00,77.7,75.5,29.94,SE,127,1.0,2.0,93,0.00,,,0.00,VWS V14.01,2013-10-22 12:26:00,
2013-10-22 08:30:00,78.0,75.8,29.94,SE,127,0.0,2.0,93,0.00,,,0.00,VWS V14.01,2013-10-22 12:30:00,
2013-10-22 08:31:00,78.1,75.6,29.94,SE,127,0.0,0.0,92,0.00,,,0.00,VWS V14.01,2013-10-22 12:31:00,
2013-10-22 08:36:00,78.5,76.0,29.94,SE,127,0.0,2.0,92,0.00,,,0.00,VWS V14.01,2013-10-22 12:36:00,
2013-10-22 08:41:00,79.3,76.1,29.94,SE,127,1.0,2.0,90,0.00,,,0.00,VWS V14.01,2013-10-22 12:41:00,
2013-10-22 08:45:00,79.8,76.3,29.94,SE,127,1.0,3.0,89,0.00,,,0.00,VWS V14.01,2013-10-22 12:45:00,
2013-10-22 08:46:00,79.9,76.4,29.94,SE,127,0.0,1.0,89,0.00,,,0.00,VWS V14.01,2013-10-22 12:46:00,
2013-10-22 08:51:00,80.7,76.5,29.94,SE,127,0.0,1.0,87,0.00,,,0.00,VWS V14.01,2013-10-22 12:51:00,
2013-10-22 08:56:00,81.3,76.0,29.94,SSE,147,1.0,4.0,84,0.00,,,0.00,VWS V14.01,2013-10-22 12:56:00,
2013-10-22 09:00:00,81.4,75.7,29.94,South,172,3.0,4.0,83,0.00,,,0.00,VWS V14.01,2013-10-22 13:00:00,
2013-10-22 09:01:00,81.4,76.1,29.94,South,172,3.0,3.0,84,0.00,,,0.00,VWS V14.01,2013-10-22 13:01:00,
2013-10-22 09:06:00,81.6,76.3,29.95,South,171,3.0,4.0,84,0.00,,,0.00,VWS V14.01,2013-10-22 13:06:00,
2013-10-22 09:11:00,82.0,76.3,29.94,South,185,2.0,6.0,83,0.00,,,0.00,VWS V14.01,2013-10-22 13:11:00,
2013-10-22 09:15:00,82.0,76.0,29.94,SSE,155,2.0,6.0,82,0.00,,,0.00,VWS V14.01,2013-10-22 13:15:00,
2013-10-22 09:16:00,82.1,76.4,29.94,SSE,155,2.0,2.0,83,0.00,,,0.00,VWS V14.01,2013-10-22 13:16:00,
2013-10-22 09:21:00,82.7,76.7,29.94,SE,125,0.0,4.0,82,0.00,,,0.00,VWS V14.01,2013-10-22 13:21:00,
2013-10-22 09:26:00,83.2,76.8,29.94,SE,126,2.0,4.0,81,0.00,,,0.00,VWS V14.01,2013-10-22 13:26:00,
2013-10-22 09:30:00,83.5,76.3,29.94,South,186,3.0,7.0,79,0.00,,,0.00,VWS V14.01,2013-10-22 13:30:00,
2013-10-22 09:31:00,83.5,76.7,29.94,SSE,161,2.0,3.0,80,0.00,,,0.00,VWS V14.01,2013-10-22 13:31:00,
2013-10-22 09:36:00,83.2,76.4,29.95,ESE,116,0.0,6.0,80,0.00,,,0.00,VWS V14.01,2013-10-22 13:36:00,
2013-10-22 09:41:00,83.8,77.0,29.95,SE,128,0.0,6.0,80,0.00,,,0.00,VWS V14.01,2013-10-22 13:41:00,
2013-10-22 09:45:00,84.3,76.7,29.95,SE,138,1.0,6.0,78,0.00,,,0.00,VWS V14.01,2013-10-22 13:45:00,
2013-10-22 09:46:00,84.3,76.7,29.95,SE,136,0.0,1.0,78,0.00,,,0.00,VWS V14.01,2013-10-22 13:46:00,
2013-10-22 09:51:00,84.6,77.0,29.95,ESE,123,1.0,3.0,78,0.00,,,0.00,VWS V14.01,2013-10-22 13:51:00,
2013-10-22 09:56:00,85.0,77.4,29.95,ESE,103,1.0,4.0,78,0.00,,,0.00,VWS V14.01,2013-10-22 13:56:00,
2013-10-22 10:00:00,85.2,76.8,29.94,SE,142,1.0,7.0,76,0.00,,,0.00,VWS V14.01,2013-10-22 14:00:00,
2013-10-22 10:01:00,85.2,77.2,29.95,SE,142,0.0,1.0,77,0.00,,,0.00,VWS V14.01,2013-10-22 14:01:00,
2013-10-22 10:06:00,85.2,76.8,29.95,SSE,163,0.0,8.0,76,0.00,,,0.00,VWS V14.01,2013-10-22 14:06:00,
2013-10-22 10:11:00,85.5,76.3,29.95,SSE,157,2.0,8.0,74,0.00,,,0.00,VWS V14.01,2013-10-22 14:11:00,
2013-10-22 10:15:00,85.1,75.9,29.94,South,186,3.0,9.0,74,0.00,,,0.00,VWS V14.01,2013-10-22 14:15:00,
2013-10-22 10:16:00,85.1,75.9,29.94,South,188,2.0,5.0,74,0.00,,,0.00,VWS V14.01,2013-10-22 14:16:00,
2013-10-22 10:21:00,85.5,75.9,29.94,SSE,150,3.0,7.0,73,0.00,,,0.00,VWS V14.01,2013-10-22 14:21:00,
2013-10-22 10:26:00,86.0,76.3,29.94,South,184,2.0,8.0,73,0.00,,,0.00,VWS V14.01,2013-10-22 14:26:00,
2013-10-22 10:30:00,86.0,75.5,29.94,SSW,209,7.0,9.0,71,0.00,,,0.00,VWS V14.01,2013-10-22 14:30:00,
2013-10-22 10:31:00,85.8,75.3,29.94,South,183,4.0,7.0,71,0.00,,,0.00,VWS V14.01,2013-10-22 14:31:00,
2013-10-22 10:36:00,85.4,75.8,29.94,SSE,165,3.0,11.0,73,0.00,,,0.00,VWS V14.01,2013-10-22 14:36:00,
2013-10-22 10:41:00,86.3,75.8,29.94,SE,126,2.0,11.0,71,0.00,,,0.00,VWS V14.01,2013-10-22 14:41:00,
2013-10-22 10:45:00,86.7,75.8,29.94,SE,135,4.0,11.0,70,0.00,,,0.00,VWS V14.01,2013-10-22 14:45:00,
2013-10-22 10:46:00,86.8,75.8,29.94,SSE,167,3.0,4.0,70,0.00,,,0.00,VWS V14.01,2013-10-22 14:46:00,
2013-10-22 10:51:00,86.1,75.6,29.94,SE,136,3.0,9.0,71,0.00,,,0.00,VWS V14.01,2013-10-22 14:51:00,
2013-10-22 10:56:00,85.6,76.0,29.93,South,190,5.0,9.0,73,0.00,,,0.00,VWS V14.01,2013-10-22 14:56:00,
2013-10-22 11:00:00,85.5,75.4,29.93,SSW,198,3.0,9.0,72,0.00,,,0.00,VWS V14.01,2013-10-22 15:00:00,
2013-10-22 11:01:00,85.5,75.9,29.93,South,173,4.0,5.0,73,0.00,,,0.00,VWS V14.01,2013-10-22 15:01:00,
2013-10-22 11:06:00,86.1,75.6,29.93,SW,214,5.0,7.0,71,0.00,,,0.00,VWS V14.01,2013-10-22 15:06:00,
2013-10-22 11:11:00,87.2,76.2,29.93,South,182,3.0,9.0,70,0.00,,,0.00,VWS V14.01,2013-10-22 15:11:00,
2013-10-22 11:15:00,88.1,75.8,29.93,SE,136,4.0,10.0,67,0.00,,,0.00,VWS V14.01,2013-10-22 15:15:00,
2013-10-22 11:16:00,88.1,75.8,29.93,SSE,153,3.0,7.0,67,0.00,,,0.00,VWS V14.01,2013-10-22 15:16:00,
2013-10-22 11:21:00,86.6,75.2,29.93,South,186,2.0,9.0,69,0.00,,,0.00,VWS V14.01,2013-10-22 15:21:00,
2013-10-22 11:26:00,86.9,75.1,29.93,South,185,6.0,9.0,68,0.00,,,0.00,VWS V14.01,2013-10-22 15:26:00,
2013-10-22 11:30:00,87.8,76.4,29.93,SSE,161,3.0,9.0,69,0.00,,,0.00,VWS V14.01,2013-10-22 15:30:00,
2013-10-22 11:31:00,88.0,76.1,29.93,South,169,3.0,3.0,68,0.00,,,0.00,VWS V14.01,2013-10-22 15:31:00,
2013-10-22 11:36:00,87.6,75.7,29.93,South,169,4.0,7.0,68,0.00,,,0.00,VWS V14.01,2013-10-22 15:36:00,
2013-10-22 11:41:00,87.1,74.8,29.92,South,169,5.0,11.0,67,0.00,,,0.00,VWS V14.01,2013-10-22 15:41:00,
2013-10-22 11:45:00,87.0,75.6,29.92,ESE,118,1.0,11.0,69,0.00,,,0.00,VWS V14.01,2013-10-22 15:45:00,
2013-10-22 11:46:00,87.0,75.6,29.92,SSE,153,6.0,8.0,69,0.00,,,0.00,VWS V14.01,2013-10-22 15:46:00,
2013-10-22 11:51:00,87.0,75.6,29.92,South,190,4.0,9.0,69,0.00,,,0.00,VWS V14.01,2013-10-22 15:51:00,
2013-10-22 11:56:00,86.8,75.4,29.92,South,175,3.0,12.0,69,0.00,,,0.00,VWS V14.01,2013-10-22 15:56:00,
2013-10-22 12:00:00,87.9,76.0,29.92,SE,141,5.0,12.0,68,0.00,,,0.00,VWS V14.01,2013-10-22 16:00:00,
2013-10-22 12:01:00,88.2,76.3,29.92,ESE,114,1.0,6.0,68,0.00,,,0.00,VWS V14.01,2013-10-22 16:01:00,
2013-10-22 12:06:00,88.9,76.1,29.92,East,92,3.0,9.0,66,0.00,,,0.00,VWS V14.01,2013-10-22 16:06:00,
2013-10-22 12:11:00,88.8,76.4,29.92,SE,133,2.0,10.0,67,0.00,,,0.00,VWS V14.01,2013-10-22 16:11:00,
2013-10-22 12:15:00,88.1,75.8,29.92,South,182,1.0,10.0,67,0.00,,,0.00,VWS V14.01,2013-10-22 16:15:00,
2013-10-22 12:16:00,88.1,76.2,29.92,South,184,2.0,3.0,68,0.00,,,0.00,VWS V14.01,2013-10-22 16:16:00,
2013-10-22 12:21:00,87.8,76.4,29.92,South,188,6.0,9.0,69,0.00,,,0.00,VWS V14.01,2013-10-22 16:21:00,
2013-10-22 12:26:00,87.2,75.8,29.91,SE,144,4.0,9.0,69,0.00,,,0.00,VWS V14.01,2013-10-22 16:26:00,
2013-10-22 12:30:00,87.0,75.6,29.92,SSW,193,3.0,10.0,69,0.00,,,0.00,VWS V14.01,2013-10-22 16:30:00,
2013-10-22 12:31:00,87.0,75.6,29.92,South,180,2.0,7.0,69,0.00,,,0.00,VWS V14.01,2013-10-22 16:31:00,
2013-10-22 12:36:00,86.3,76.2,29.92,SSW,201,3.0,12.0,72,0.00,,,0.00,VWS V14.01,2013-10-22 16:36:00,
2013-10-22 12:41:00,86.9,75.9,29.91,South,184,4.0,12.0,70,0.00,,,0.00,VWS V14.01,2013-10-22 16:41:00,
2013-10-22 12:45:00,87.6,74.8,29.91,South,184,11.0,12.0,66,0.00,,,0.00,VWS V14.01,2013-10-22 16:45:00,
2013-10-22 12:46:00,87.7,75.4,29.91,SW,214,5.0,11.0,67,0.00,,,0.00,VWS V14.01,2013-10-22 16:46:00,
2013-10-22 12:51:00,87.6,75.7,29.91,South,170,7.0,11.0,68,0.00,,,0.00,VWS V14.01,2013-10-22 16:51:00,
2013-10-22 12:56:00,88.4,76.1,29.91,South,188,3.0,11.0,67,0.00,,,0.00,VWS V14.01,2013-10-22 16:56:00,
2013-10-22 13:00:00,88.3,76.0,29.91,SSE,163,5.0,11.0,67,0.00,,,0.00,VWS V14.01,2013-10-22 17:00:00,
2013-10-22 13:01:00,88.3,76.0,29.91,South,184,8.0,8.0,67,0.00,,,0.00,VWS V14.01,2013-10-22 17:01:00,
2013-10-22 13:06:00,88.6,76.2,29.90,South,177,7.0,8.0,67,0.00,,,0.00,VWS V14.01,2013-10-22 17:06:00,
2013-10-22 13:11:00,88.2,75.9,29.90,SSW,200,1.0,8.0,67,0.00,,,0.00,VWS V14.01,2013-10-22 17:11:00,
2013-10-22 13:15:00,87.9,75.1,29.90,SSW,203,6.0,11.0,66,0.00,,,0.00,VWS V14.01,2013-10-22 17:15:00,
2013-10-22 13:16:00,87.7,75.4,29.90,South,186,4.0,8.0,67,0.00,,,0.00,VWS V14.01,2013-10-22 17:16:00,
2013-10-22 13:21:00,87.2,75.4,29.89,SW,215,4.0,10.0,68,0.00,,,0.00,VWS V14.01,2013-10-22 17:21:00,
2013-10-22 13:26:00,86.9,75.5,29.89,SSW,198,3.0,10.0,69,0.00,,,0.00,VWS V14.01,2013-10-22 17:26:00,
2013-10-22 13:30:00,86.9,75.9,29.89,South,190,3.0,10.0,70,0.00,,,0.00,VWS V14.01,2013-10-22 17:30:00,
2013-10-22 13:31:00,86.9,75.9,29.89,South,190,4.0,4.0,70,0.00,,,0.00,VWS V14.01,2013-10-22 17:31:00,
2013-10-22 13:36:00,87.9,76.0,29.89,South,171,9.0,13.0,68,0.00,,,0.00,VWS V14.01,2013-10-22 17:36:00,
2013-10-22 13:41:00,87.8,74.6,29.89,SSE,153,3.0,13.0,65,0.00,,,0.00,VWS V14.01,2013-10-22 17:41:00,
2013-10-22 13:45:00,89.2,75.4,29.89,SSE,166,5.0,13.0,64,0.00,,,0.00,VWS V14.01,2013-10-22 17:45:00,
2013-10-22 13:46:00,89.4,75.6,29.89,SSE,157,2.0,5.0,64,0.00,,,0.00,VWS V14.01,2013-10-22 17:46:00,
2013-10-22 13:51:00,89.2,73.5,29.89,SSE,168,6.0,12.0,60,0.00,,,0.00,VWS V14.01,2013-10-22 17:51:00,
2013-10-22 13:56:00,89.0,72.8,29.89,South,175,9.0,15.0,59,0.00,,,0.00,VWS V14.01,2013-10-22 17:56:00,
2013-10-22 14:00:00,88.8,73.6,29.88,SSW,192,8.0,15.0,61,0.00,,,0.00,VWS V14.01,2013-10-22 18:00:00,
2013-10-22 14:01:00,88.8,73.1,29.88,SSW,198,6.0,13.0,60,0.00,,,0.00,VWS V14.01,2013-10-22 18:01:00,
2013-10-22 14:06:00,88.3,72.7,29.88,SSW,196,10.0,13.0,60,0.00,,,0.00,VWS V14.01,2013-10-22 18:06:00,
2013-10-22 14:11:00,88.6,73.4,29.88,South,169,4.0,13.0,61,0.00,,,0.00,VWS V14.01,2013-10-22 18:11:00,
2013-10-22 14:15:00,89.6,73.9,29.88,South,178,8.0,13.0,60,0.00,,,0.00,VWS V14.01,2013-10-22 18:15:00,
2013-10-22 14:16:00,89.7,74.0,29.88,South,182,7.0,13.0,60,0.00,,,0.00,VWS V14.01,2013-10-22 18:16:00,
2013-10-22 14:21:00,89.1,72.9,29.88,SSW,202,6.0,15.0,59,0.00,,,0.00,VWS V14.01,2013-10-22 18:21:00,
2013-10-22 14:26:00,89.4,73.7,29.88,South,176,11.0,15.0,60,0.00,,,0.00,VWS V14.01,2013-10-22 18:26:00,
2013-10-22 14:30:00,89.2,74.5,29.87,SSW,213,7.0,15.0,62,0.00,,,0.00,VWS V14.01,2013-10-22 18:30:00,
2013-10-22 14:31:00,89.2,74.0,29.87,South,173,5.0,9.0,61,0.00,,,0.00,VWS V14.01,2013-10-22 18:31:00,
2013-10-22 14:36:00,88.7,74.0,29.87,South,184,11.0,15.0,62,0.00,,,0.00,VWS V14.01,2013-10-22 18:36:00,
2013-10-22 14:41:00,88.3,74.1,29.87,SSW,211,6.0,15.0,63,0.00,,,0.00,VWS V14.01,2013-10-22 18:41:00,
2013-10-22 14:45:00,88.8,75.1,29.87,SSE,159,6.0,15.0,64,0.00,,,0.00,VWS V14.01,2013-10-22 18:45:00,
2013-10-22 14:46:00,89.0,75.2,29.87,SSE,159,2.0,11.0,64,0.00,,,0.00,VWS V14.01,2013-10-22 18:46:00,
2013-10-22 14:51:00,89.7,75.0,29.87,SE,137,5.0,11.0,62,0.00,,,0.00,VWS V14.01,2013-10-22 18:51:00,
2013-10-22 14:56:00,89.5,74.8,29.87,ESE,116,5.0,11.0,62,0.00,,,0.00,VWS V14.01,2013-10-22 18:56:00,
2013-10-22 15:00:00,89.8,74.6,29.87,SSE,154,8.0,11.0,61,0.00,,,0.00,VWS V14.01,2013-10-22 19:00:00,
2013-10-22 15:01:00,89.8,74.1,29.87,South,182,5.0,8.0,60,0.00,,,0.00,VWS V14.01,2013-10-22 19:01:00,
2013-10-22 15:06:00,90.4,74.6,29.87,SSE,150,9.0,10.0,60,0.00,,,0.00,VWS V14.01,2013-10-22 19:06:00,
2013-10-22 15:11:00,90.9,74.1,29.87,SSW,207,7.0,10.0,58,0.00,,,0.00,VWS V14.01,2013-10-22 19:11:00,
2013-10-22 15:15:00,89.4,74.2,29.87,SSW,195,4.0,10.0,61,0.00,,,0.00,VWS V14.01,2013-10-22 19:15:00,
2013-10-22 15:16:00,89.3,74.1,29.87,SSW,196,4.0,6.0,61,0.00,,,0.00,VWS V14.01,2013-10-22 19:16:00,
2013-10-22 15:21:00,90.4,74.6,29.87,SSE,152,5.0,7.0,60,0.00,,,0.00,VWS V14.01,2013-10-22 19:21:00,
2013-10-22 15:26:00,90.4,74.1,29.86,SSE,150,5.0,11.0,59,0.00,,,0.00,VWS V14.01,2013-10-22 19:26:00,
2013-10-22 15:30:00,89.9,73.7,29.87,SSW,209,4.0,11.0,59,0.00,,,0.00,VWS V14.01,2013-10-22 19:30:00,
2013-10-22 15:31:00,89.8,74.1,29.86,SSE,167,9.0,11.0,60,0.00,,,0.00,VWS V14.01,2013-10-22 19:31:00,
2013-10-22 15:36:00,89.1,73.9,29.86,SSW,210,7.0,12.0,61,0.00,,,0.00,VWS V14.01,2013-10-22 19:36:00,
2013-10-22 15:41:00,88.2,74.5,29.86,South,184,5.0,12.0,64,0.00,,,0.00,VWS V14.01,2013-10-22 19:41:00,
2013-10-22 15:45:00,88.5,74.8,29.86,South,180,7.0,12.0,64,0.00,,,0.00,VWS V14.01,2013-10-22 19:45:00,
2013-10-22 15:46:00,88.6,74.4,29.86,South,176,8.0,8.0,63,0.00,,,0.00,VWS V14.01,2013-10-22 19:46:00,
2013-10-22 15:51:00,89.5,74.8,29.86,South,178,6.0,8.0,62,0.00,,,0.00,VWS V14.01,2013-10-22 19:51:00,
2013-10-22 15:56:00,90.1,75.3,29.86,South,177,6.0,8.0,62,0.00,,,0.00,VWS V14.01,2013-10-22 19:56:00,
2013-10-22 16:00:00,90.2,75.4,29.86,South,177,11.0,11.0,62,0.00,,,0.00,VWS V14.01,2013-10-22 20:00:00,
2013-10-22 16:01:00,90.0,74.8,29.86,South,186,10.0,11.0,61,0.00,,,0.00,VWS V14.01,2013-10-22 20:01:00,
2013-10-22 16:06:00,89.1,74.9,29.85,South,188,4.0,11.0,63,0.00,,,0.00,VWS V14.01,2013-10-22 20:06:00,
2013-10-22 16:11:00,90.3,75.5,29.85,SSW,194,10.0,11.0,62,0.00,,,0.00,VWS V14.01,2013-10-22 20:11:00,
2013-10-22 16:15:00,89.7,75.0,29.85,SW,223,5.0,11.0,62,0.00,,,0.00,VWS V14.01,2013-10-22 20:15:00,
2013-10-22 16:16:00,89.7,75.0,29.85,SW,215,3.0,7.0,62,0.00,,,0.00,VWS V14.01,2013-10-22 20:16:00,
2013-10-22 16:21:00,90.2,74.4,29.85,SSW,202,5.0,9.0,60,0.00,,,0.00,VWS V14.01,2013-10-22 20:21:00,
2013-10-22 16:26:00,89.6,75.3,29.85,SSW,196,1.0,9.0,63,0.00,,,0.00,VWS V14.01,2013-10-22 20:26:00,
2013-10-22 16:30:00,89.7,75.0,29.85,SSE,165,2.0,9.0,62,0.00,,,0.00,VWS V14.01,2013-10-22 20:30:00,
2013-10-22 16:31:00,89.7,75.0,29.85,SSW,197,7.0,7.0,62,0.00,,,0.00,VWS V14.01,2013-10-22 20:31:00,
2013-10-22 16:36:00,89.7,75.0,29.85,South,172,2.0,9.0,62,0.00,,,0.00,VWS V14.01,2013-10-22 20:36:00,
2013-10-22 16:41:00,89.9,75.1,29.85,SSW,197,7.0,9.0,62,0.00,,,0.00,VWS V14.01,2013-10-22 20:41:00,
2013-10-22 16:45:00,89.9,74.7,29.85,SSE,165,5.0,9.0,61,0.00,,,0.00,VWS V14.01,2013-10-22 20:45:00,
2013-10-22 16:46:00,89.9,74.7,29.85,SSW,209,3.0,5.0,61,0.00,,,0.00,VWS V14.01,2013-10-22 20:46:00,
2013-10-22 16:51:00,89.1,74.9,29.85,SW,224,1.0,10.0,63,0.00,,,0.00,VWS V14.01,2013-10-22 20:51:00,
2013-10-22 16:56:00,88.9,74.7,29.84,SSE,167,4.0,10.0,63,0.00,,,0.00,VWS V14.01,2013-10-22 20:56:00,
2013-10-22 17:00:00,89.5,75.2,29.84,South,186,10.0,11.0,63,0.00,,,0.00,VWS V14.01,2013-10-22 21:00:00,
2013-10-22 17:01:00,89.4,75.2,29.84,South,169,9.0,10.0,63,0.00,,,0.00,VWS V14.01,2013-10-22 21:01:00,
2013-10-22 17:06:00,88.5,74.8,29.84,South,188,7.0,11.0,64,0.00,,,0.00,VWS V14.01,2013-10-22 21:06:00,
2013-10-22 17:11:00,88.4,75.1,29.84,SW,218,7.0,11.0,65,0.00,,,0.00,VWS V14.01,2013-10-22 21:11:00,
2013-10-22 17:15:00,88.7,75.0,29.84,SW,214,5.0,11.0,64,0.00,,,0.00,VWS V14.01,2013-10-22 21:15:00,
2013-10-22 17:16:00,88.7,75.0,29.84,South,186,5.0,5.0,64,0.00,,,0.00,VWS V14.01,2013-10-22 21:16:00,
2013-10-22 17:21:00,88.5,75.2,29.84,SSW,205,4.0,12.0,65,0.00,,,0.00,VWS V14.01,2013-10-22 21:21:00,
2013-10-22 17:26:00,88.0,75.2,29.84,South,191,4.0,12.0,66,0.00,,,0.00,VWS V14.01,2013-10-22 21:26:00,
2013-10-22 17:30:00,88.0,75.7,29.84,SSE,163,3.0,12.0,67,0.00,,,0.00,VWS V14.01,2013-10-22 21:30:00,
2013-10-22 17:31:00,88.0,75.7,29.84,SSW,209,3.0,4.0,67,0.00,,,0.00,VWS V14.01,2013-10-22 21:31:00,
2013-10-22 17:36:00,87.8,75.5,29.84,South,181,3.0,9.0,67,0.00,,,0.00,VWS V14.01,2013-10-22 21:36:00,
2013-10-22 17:41:00,87.8,75.9,29.85,South,186,6.0,9.0,68,0.00,,,0.00,VWS V14.01,2013-10-22 21:41:00,
2013-10-22 17:45:00,88.0,76.1,29.84,South,174,5.0,9.0,68,0.00,,,0.00,VWS V14.01,2013-10-22 21:45:00,
2013-10-22 17:46:00,88.0,76.1,29.84,SSW,196,1.0,7.0,68,0.00,,,0.00,VWS V14.01,2013-10-22 21:46:00,
2013-10-22 17:51:00,88.0,76.1,29.84,SSE,150,4.0,7.0,68,0.00,,,0.00,VWS V14.01,2013-10-22 21:51:00,
2013-10-22 17:56:00,88.2,75.9,29.84,SSE,167,2.0,9.0,67,0.00,,,0.00,VWS V14.01,2013-10-22 21:56:00,
2013-10-22 18:00:00,88.3,76.4,29.84,SSE,167,5.0,9.0,68,0.00,,,0.00,VWS V14.01,2013-10-22 22:00:00,
2013-10-22 18:01:00,88.3,76.4,29.84,South,169,4.0,7.0,68,0.00,,,0.00,VWS V14.01,2013-10-22 22:01:00,
2013-10-22 18:06:00,87.6,76.2,29.84,South,189,6.0,9.0,69,0.00,,,0.00,VWS V14.01,2013-10-22 22:06:00,
2013-10-22 18:11:00,87.0,76.0,29.84,South,189,4.0,9.0,70,0.00,,,0.00,VWS V14.01,2013-10-22 22:11:00,
2013-10-22 18:15:00,86.8,76.3,29.84,SSE,161,2.0,9.0,71,0.00,,,0.00,VWS V14.01,2013-10-22 22:15:00,
2013-10-22 18:16:00,86.8,76.3,29.84,South,170,3.0,3.0,71,0.00,,,0.00,VWS V14.01,2013-10-22 22:16:00,
2013-10-22 18:21:00,86.6,76.1,29.84,South,187,9.0,10.0,71,0.00,,,0.00,VWS V14.01,2013-10-22 22:21:00,
2013-10-22 18:26:00,86.3,76.2,29.84,South,175,4.0,10.0,72,0.00,,,0.00,VWS V14.01,2013-10-22 22:26:00,
2013-10-22 18:30:00,86.2,76.1,29.84,SSW,193,3.0,10.0,72,0.00,,,0.00,VWS V14.01,2013-10-22 22:30:00,
2013-10-22 18:31:00,86.2,76.1,29.84,South,189,4.0,6.0,72,0.00,,,0.00,VWS V14.01,2013-10-22 22:31:00,
2013-10-22 18:36:00,86.1,76.0,29.84,South,182,5.0,8.0,72,0.00,,,0.00,VWS V14.01,2013-10-22 22:36:00,
2013-10-22 18:41:00,86.0,76.3,29.84,South,189,3.0,8.0,73,0.00,,,0.00,VWS V14.01,2013-10-22 22:41:00,
2013-10-22 18:45:00,85.8,76.2,29.84,South,170,3.0,8.0,73,0.00,,,0.00,VWS V14.01,2013-10-22 22:45:00,
2013-10-22 18:46:00,85.8,76.2,29.84,South,190,3.0,5.0,73,0.00,,,0.00,VWS V14.01,2013-10-22 22:46:00,
2013-10-22 18:51:00,85.7,76.5,29.84,South,175,1.0,6.0,74,0.00,,,0.00,VWS V14.01,2013-10-22 22:51:00,
2013-10-22 18:56:00,85.6,76.4,29.84,South,180,1.0,6.0,74,0.00,,,0.00,VWS V14.01,2013-10-22 22:56:00,
2013-10-22 19:00:00,85.5,76.3,29.84,South,172,4.0,6.0,74,0.00,,,0.00,VWS V14.01,2013-10-22 23:00:00,
2013-10-22 19:01:00,85.5,76.3,29.84,South,169,2.0,4.0,74,0.00,,,0.00,VWS V14.01,2013-10-22 23:01:00,
2013-10-22 19:06:00,85.4,76.2,29.84,South,173,3.0,8.0,74,0.00,,,0.00,VWS V14.01,2013-10-22 23:06:00,
2013-10-22 19:11:00,85.2,76.4,29.85,SSE,154,1.0,8.0,75,0.00,,,0.00,VWS V14.01,2013-10-22 23:11:00,
2013-10-22 19:15:00,85.2,76.4,29.85,SSE,164,5.0,8.0,75,0.00,,,0.00,VWS V14.01,2013-10-22 23:15:00,
2013-10-22 19:16:00,85.1,75.9,29.85,South,180,2.0,5.0,74,0.00,,,0.00,VWS V14.01,2013-10-22 23:16:00,
2013-10-22 19:21:00,85.0,76.2,29.85,South,184,2.0,8.0,75,0.00,,,0.00,VWS V14.01,2013-10-22 23:21:00,
2013-10-22 19:26:00,84.8,76.0,29.85,South,183,4.0,8.0,75,0.00,,,0.00,VWS V14.01,2013-10-22 23:26:00,
2013-10-22 19:30:00,84.8,76.0,29.85,South,181,2.0,8.0,75,0.00,,,0.00,VWS V14.01,2013-10-22 23:30:00,
2013-10-22 19:31:00,84.7,75.9,29.85,SSE,155,5.0,5.0,75,0.00,,,0.00,VWS V14.01,2013-10-22 23:31:00,
2013-10-22 19:36:00,84.7,75.9,29.85,South,180,1.0,8.0,75,0.00,,,0.00,VWS V14.01,2013-10-22 23:36:00,
2013-10-22 19:41:00,84.5,76.1,29.85,South,170,2.0,8.0,76,0.00,,,0.00,VWS V14.01,2013-10-22 23:41:00,
2013-10-22 19:45:00,84.5,76.1,29.85,South,184,5.0,8.0,76,0.00,,,0.00,VWS V14.01,2013-10-22 23:45:00,
2013-10-22 19:46:00,84.4,76.0,29.85,South,182,6.0,6.0,76,0.00,,,0.00,VWS V14.01,2013-10-22 23:46:00,
2013-10-22 19:51:00,84.4,76.4,29.85,South,169,1.0,8.0,77,0.00,,,0.00,VWS V14.01,2013-10-22 23:51:00,
2013-10-22 19:56:00,84.3,76.3,29.85,SSE,159,2.0,8.0,77,0.00,,,0.00,VWS V14.01,2013-10-22 23:56:00,
2013-10-22 20:00:00,84.2,76.2,29.85,South,173,3.0,8.0,77,0.00,,,0.00,VWS V14.01,2013-10-23 00:00:00,
2013-10-22 20:01:00,84.2,76.2,29.85,South,188,5.0,5.0,77,0.00,,,0.00,VWS V14.01,2013-10-23 00:01:00,
2013-10-22 20:15:00,84.0,76.8,29.86,South,180,3.0,8.0,79,0.00,,,0.00,VWS V14.01,2013-10-23 00:15:00,
2013-10-22 20:30:00,83.8,76.6,29.87,South,180,3.0,6.0,79,0.00,,,0.00,VWS V14.01,2013-10-23 00:30:00,
2013-10-22 20:45:00,83.6,76.8,29.87,South,180,4.0,9.0,80,0.00,,,0.00,VWS V14.01,2013-10-23 00:45:00,
2013-10-22 21:00:00,83.6,76.4,29.87,South,180,4.0,8.0,79,0.00,,,0.00,VWS V14.01,2013-10-23 01:00:00,
2013-10-22 21:15:00,83.4,75.8,29.88,SSW,202,4.0,8.0,78,0.00,,,0.00,VWS V14.01,2013-10-23 01:15:00,
2013-10-22 21:30:00,83.2,75.2,29.88,SW,225,3.0,6.0,77,0.00,,,0.00,VWS V14.01,2013-10-23 01:30:00,
2013-10-22 21:45:00,83.0,75.4,29.88,SSW,202,2.0,6.0,78,0.00,,,0.00,VWS V14.01,2013-10-23 01:45:00,
2013-10-22 22:00:00,82.9,75.3,29.89,WSW,248,3.0,6.0,78,0.00,,,0.00,VWS V14.01,2013-10-23 02:00:00,
2013-10-22 22:15:00,82.6,75.8,29.89,WSW,248,3.0,4.0,80,0.00,,,0.00,VWS V14.01,2013-10-23 02:15:00,
2013-10-22 22:30:00,82.2,76.5,29.89,WSW,248,4.0,9.0,83,0.00,,,0.00,VWS V14.01,2013-10-23 02:30:00,
2013-10-22 22:45:00,81.9,76.2,29.90,WSW,248,4.0,7.0,83,0.00,,,0.00,VWS V14.01,2013-10-23 02:45:00,
2013-10-22 23:00:00,81.6,76.3,29.89,WSW,248,2.0,6.0,84,0.00,,,0.00,VWS V14.01,2013-10-23 03:00:00,
2013-10-22 23:15:00,81.2,75.9,29.89,SW,225,2.0,4.0,84,0.00,,,0.00,VWS V14.01,2013-10-23 03:15:00,
2013-10-22 23:30:00,81.2,76.3,29.89,SW,225,2.0,7.0,85,0.00,,,0.00,VWS V14.01,2013-10-23 03:30:00,
2013-10-22 23:45:00,81.1,76.2,29.89,WSW,248,2.0,4.0,85,0.00,,,0.00,VWS V14.01,2013-10-23 03:45:00,